Location: Saluda
(35.2377°N, 82.3468°W)
Time: 21:14:28
(UTC+00:00)

Vanguard 2 Rocket - Pass Details

Date: 06 October 2022
Orbit: 553 x 3312 km, 32.9° (Epoch: 02 December)

Event Time Altitude Azimuth Distance (km) Brightness Sun altitude
Rises 23:51:45 0° 207° (SSW) 7,163 11.9 -10.1°
Reaches altitude 10° 23:57:26 10° 198° (SSW) 6,253 11.4 -11.3°
Maximum altitude 00:13:41 32° 145° (SE) 4,425 10.0 -14.6°
Enters shadow 00:23:05 19° 102° (ESE) 4,691 9.8 -16.5°
Drops below altitude 10° 00:26:56 10° 90° (E) 5,153 - -17.3°
Sets 00:30:57 0° 81° (E) 5,803 - -18.1°
